TIANLIAN 1-05

Last updated on Tue Oct 08 2024 00:02:41 GMT+0000 (Coordinated Universal Time)

1 49011U 21063A 24281.18883861 .00000120 00000+0 00000+0 0 9998 2 49011 0.0686 354.7476 0004146 216.0335 250.3954 1.00272848 11886
UTC large
Height (km)
Speed (km/s)
/
Latitude / Longitude
Inclination (degrees)
Orbital Period (minutes)
Azimuth
Elevation
Range (km)
Doppler Factor

Next 0 passes for location: London (51.5072 / 0.1276)

Sorry there are no passes over London.